﻿測定場所 (Monitoring sites),日付 (Measurement date),時間 (Measurement time),線量率 最大値 (max) μGy/h,線量率 最小値 (min) μGy/h,線量率 平均値 (average) μGy/h,
江戸川 (Edogawa),2022-12-11,23:01～24:00,0.0504,0.0432,0.0469,
江戸川 (Edogawa),2022-12-11,22:01～23:00,0.0499,0.0395,0.0434,
江戸川 (Edogawa),2022-12-11,21:01～22:00,0.0442,0.0378,0.0412,
江戸川 (Edogawa),2022-12-11,20:01～21:00,0.0431,0.0373,0.0403,
江戸川 (Edogawa),2022-12-11,19:01～20:00,0.0445,0.0370,0.0404,
江戸川 (Edogawa),2022-12-11,18:01～19:00,0.0421,0.0372,0.0403,
江戸川 (Edogawa),2022-12-11,17:01～18:00,0.0438,0.0373,0.0401,
江戸川 (Edogawa),2022-12-11,16:01～17:00,0.0432,0.0370,0.0402,
江戸川 (Edogawa),2022-12-11,15:01～16:00,0.0430,0.0369,0.0397,
江戸川 (Edogawa),2022-12-11,14:01～15:00,0.0425,0.0363,0.0394,
江戸川 (Edogawa),2022-12-11,13:01～14:00,0.0420,0.0367,0.0395,
江戸川 (Edogawa),2022-12-11,12:01～13:00,0.0447,0.0368,0.0403,
江戸川 (Edogawa),2022-12-11,11:01～12:00,0.0442,0.0381,0.0413,
江戸川 (Edogawa),2022-12-11,10:01～11:00,0.0439,0.0381,0.0410,
江戸川 (Edogawa),2022-12-11,09:01～10:00,0.0442,0.0379,0.0413,
江戸川 (Edogawa),2022-12-11,08:01～09:00,0.0451,0.0386,0.0418,
江戸川 (Edogawa),2022-12-11,07:01～08:00,0.0440,0.0376,0.0412,
江戸川 (Edogawa),2022-12-11,06:01～07:00,0.0441,0.0381,0.0412,
江戸川 (Edogawa),2022-12-11,05:01～06:00,0.0445,0.0381,0.0411,
江戸川 (Edogawa),2022-12-11,04:01～05:00,0.0437,0.0370,0.0406,
江戸川 (Edogawa),2022-12-11,03:01～04:00,0.0438,0.0386,0.0407,
江戸川 (Edogawa),2022-12-11,02:01～03:00,0.0421,0.0373,0.0401,
江戸川 (Edogawa),2022-12-11,01:01～02:00,0.0428,0.0373,0.0403,
江戸川 (Edogawa),2022-12-11,00:01～01:00,0.0445,0.0370,0.0402,
江戸川 (Edogawa),2022-12-10,23:01～24:00,0.0430,0.0369,0.0398,
江戸川 (Edogawa),2022-12-10,22:01～23:00,0.0440,0.0369,0.0398,
江戸川 (Edogawa),2022-12-10,21:01～22:00,0.0423,0.0363,0.0400,
江戸川 (Edogawa),2022-12-10,20:01～21:00,0.0430,0.0369,0.0397,
江戸川 (Edogawa),2022-12-10,19:01～20:00,0.0431,0.0363,0.0399,
江戸川 (Edogawa),2022-12-10,18:01～19:00,0.0447,0.0370,0.0399,
江戸川 (Edogawa),2022-12-10,17:01～18:00,0.0428,0.0370,0.0398,
江戸川 (Edogawa),2022-12-10,16:01～17:00,0.0426,0.0367,0.0398,
江戸川 (Edogawa),2022-12-10,15:01～16:00,0.0433,0.0381,0.0401,
江戸川 (Edogawa),2022-12-10,14:01～15:00,0.0432,0.0380,0.0407,
江戸川 (Edogawa),2022-12-10,13:01～14:00,0.0434,0.0381,0.0407,
江戸川 (Edogawa),2022-12-10,12:01～13:00,0.0436,0.0367,0.0408,
江戸川 (Edogawa),2022-12-10,11:01～12:00,0.0454,0.0370,0.0409,
江戸川 (Edogawa),2022-12-10,10:01～11:00,0.0449,0.0381,0.0413,
江戸川 (Edogawa),2022-12-10,09:01～10:00,0.0436,0.0370,0.0410,
江戸川 (Edogawa),2022-12-10,08:01～09:00,0.0445,0.0380,0.0411,
江戸川 (Edogawa),2022-12-10,07:01～08:00,0.0434,0.0380,0.0409,
江戸川 (Edogawa),2022-12-10,06:01～07:00,0.0440,0.0378,0.0410,
江戸川 (Edogawa),2022-12-10,05:01～06:00,0.0438,0.0373,0.0409,
江戸川 (Edogawa),2022-12-10,04:01～05:00,0.0446,0.0381,0.0407,
江戸川 (Edogawa),2022-12-10,03:01～04:00,0.0438,0.0385,0.0407,
江戸川 (Edogawa),2022-12-10,02:01～03:00,0.0440,0.0380,0.0407,
江戸川 (Edogawa),2022-12-10,01:01～02:00,0.0452,0.0376,0.0404,
江戸川 (Edogawa),2022-12-10,00:01～01:00,0.0442,0.0367,0.0401,
江戸川 (Edogawa),2022-12-09,23:01～24:00,0.0426,0.0374,0.0401,
江戸川 (Edogawa),2022-12-09,22:01～23:00,0.0437,0.0366,0.0399,
江戸川 (Edogawa),2022-12-09,21:01～22:00,0.0426,0.0371,0.0395,
江戸川 (Edogawa),2022-12-09,20:01～21:00,0.0426,0.0364,0.0396,
江戸川 (Edogawa),2022-12-09,19:01～20:00,0.0417,0.0367,0.0396,
江戸川 (Edogawa),2022-12-09,18:01～19:00,0.0429,0.0370,0.0397,
江戸川 (Edogawa),2022-12-09,17:01～18:00,0.0425,0.0367,0.0396,
江戸川 (Edogawa),2022-12-09,16:01～17:00,0.0440,0.0365,0.0401,
江戸川 (Edogawa),2022-12-09,15:01～16:00,0.0443,0.0371,0.0406,
江戸川 (Edogawa),2022-12-09,14:01～15:00,0.0431,0.0373,0.0405,
江戸川 (Edogawa),2022-12-09,13:01～14:00,0.0438,0.0364,0.0401,
江戸川 (Edogawa),2022-12-09,12:01～13:00,0.0432,0.0372,0.0405,
江戸川 (Edogawa),2022-12-09,11:01～12:00,0.0432,0.0380,0.0404,
江戸川 (Edogawa),2022-12-09,10:01～11:00,0.0433,0.0368,0.0400,
江戸川 (Edogawa),2022-12-09,09:01～10:00,0.0431,0.0369,0.0400,
江戸川 (Edogawa),2022-12-09,08:01～09:00,0.0427,0.0362,0.0401,
江戸川 (Edogawa),2022-12-09,07:01～08:00,0.0424,0.0375,0.0397,
江戸川 (Edogawa),2022-12-09,06:01～07:00,0.0439,0.0365,0.0399,
江戸川 (Edogawa),2022-12-09,05:01～06:00,0.0422,0.0369,0.0396,
江戸川 (Edogawa),2022-12-09,04:01～05:00,0.0434,0.0369,0.0397,
江戸川 (Edogawa),2022-12-09,03:01～04:00,0.0428,0.0368,0.0397,
江戸川 (Edogawa),2022-12-09,02:01～03:00,0.0436,0.0365,0.0399,
江戸川 (Edogawa),2022-12-09,01:01～02:00,0.0421,0.0372,0.0397,
江戸川 (Edogawa),2022-12-09,00:01～01:00,0.0427,0.0364,0.0397,
江戸川 (Edogawa),2022-12-08,23:01～24:00,0.0428,0.0366,0.0398,
江戸川 (Edogawa),2022-12-08,22:01～23:00,0.0423,0.0367,0.0399,
江戸川 (Edogawa),2022-12-08,21:01～22:00,0.0423,0.0372,0.0397,
江戸川 (Edogawa),2022-12-08,20:01～21:00,0.0418,0.0371,0.0396,
江戸川 (Edogawa),2022-12-08,19:01～20:00,0.0416,0.0367,0.0396,
江戸川 (Edogawa),2022-12-08,18:01～19:00,0.0425,0.0375,0.0397,
江戸川 (Edogawa),2022-12-08,17:01～18:00,0.0448,0.0369,0.0397,
江戸川 (Edogawa),2022-12-08,16:01～17:00,0.0433,0.0369,0.0400,
江戸川 (Edogawa),2022-12-08,15:01～16:00,0.0433,0.0381,0.0405,
江戸川 (Edogawa),2022-12-08,14:01～15:00,0.0435,0.0379,0.0403,
江戸川 (Edogawa),2022-12-08,13:01～14:00,0.0445,0.0387,0.0407,
江戸川 (Edogawa),2022-12-08,12:01～13:00,0.0427,0.0371,0.0406,
江戸川 (Edogawa),2022-12-08,11:01～12:00,0.0432,0.0365,0.0397,
江戸川 (Edogawa),2022-12-08,10:01～11:00,0.0419,0.0374,0.0400,
江戸川 (Edogawa),2022-12-08,09:01～10:00,0.0437,0.0377,0.0402,
江戸川 (Edogawa),2022-12-08,08:01～09:00,0.0428,0.0373,0.0401,
江戸川 (Edogawa),2022-12-08,07:01～08:00,0.0431,0.0370,0.0400,
江戸川 (Edogawa),2022-12-08,06:01～07:00,0.0432,0.0375,0.0398,
江戸川 (Edogawa),2022-12-08,05:01～06:00,0.0436,0.0368,0.0401,
江戸川 (Edogawa),2022-12-08,04:01～05:00,0.0430,0.0366,0.0398,
江戸川 (Edogawa),2022-12-08,03:01～04:00,0.0427,0.0367,0.0399,
江戸川 (Edogawa),2022-12-08,02:01～03:00,0.0443,0.0364,0.0397,
江戸川 (Edogawa),2022-12-08,01:01～02:00,0.0426,0.0370,0.0397,
江戸川 (Edogawa),2022-12-08,00:01～01:00,0.0422,0.0372,0.0397,
江戸川 (Edogawa),2022-12-07,23:01～24:00,0.0429,0.0365,0.0396,
江戸川 (Edogawa),2022-12-07,22:01～23:00,0.0418,0.0363,0.0390,
江戸川 (Edogawa),2022-12-07,21:01～22:00,0.0424,0.0366,0.0395,
江戸川 (Edogawa),2022-12-07,20:01～21:00,0.0429,0.0364,0.0394,
江戸川 (Edogawa),2022-12-07,19:01～20:00,0.0440,0.0362,0.0394,
江戸川 (Edogawa),2022-12-07,18:01～19:00,0.0427,0.0367,0.0392,
江戸川 (Edogawa),2022-12-07,17:01～18:00,0.0414,0.0365,0.0391,
江戸川 (Edogawa),2022-12-07,16:01～17:00,0.0418,0.0363,0.0393,
江戸川 (Edogawa),2022-12-07,15:01～16:00,0.0429,0.0360,0.0393,
江戸川 (Edogawa),2022-12-07,14:01～15:00,0.0437,0.0365,0.0399,
江戸川 (Edogawa),2022-12-07,13:01～14:00,0.0453,0.0373,0.0399,
江戸川 (Edogawa),2022-12-07,12:01～13:00,0.0432,0.0377,0.0404,
江戸川 (Edogawa),2022-12-07,11:01～12:00,0.0422,0.0369,0.0403,
江戸川 (Edogawa),2022-12-07,10:01～11:00,0.0435,0.0365,0.0399,
江戸川 (Edogawa),2022-12-07,09:01～10:00,0.0438,0.0367,0.0402,
江戸川 (Edogawa),2022-12-07,08:01～09:00,0.0427,0.0368,0.0396,
江戸川 (Edogawa),2022-12-07,07:01～08:00,0.0422,0.0369,0.0392,
江戸川 (Edogawa),2022-12-07,06:01～07:00,0.0433,0.0367,0.0394,
江戸川 (Edogawa),2022-12-07,05:01～06:00,0.0422,0.0368,0.0392,
江戸川 (Edogawa),2022-12-07,04:01～05:00,0.0416,0.0367,0.0395,
江戸川 (Edogawa),2022-12-07,03:01～04:00,0.0419,0.0362,0.0393,
江戸川 (Edogawa),2022-12-07,02:01～03:00,0.0424,0.0369,0.0397,
江戸川 (Edogawa),2022-12-07,01:01～02:00,0.0420,0.0361,0.0391,
江戸川 (Edogawa),2022-12-07,00:01～01:00,0.0426,0.0363,0.0390,
江戸川 (Edogawa),2022-12-06,23:01～24:00,0.0418,0.0357,0.0390,
江戸川 (Edogawa),2022-12-06,22:01～23:00,0.0418,0.0360,0.0384,
江戸川 (Edogawa),2022-12-06,21:01～22:00,0.0416,0.0360,0.0386,
江戸川 (Edogawa),2022-12-06,20:01～21:00,0.0416,0.0364,0.0388,
江戸川 (Edogawa),2022-12-06,19:01～20:00,0.0434,0.0363,0.0390,
江戸川 (Edogawa),2022-12-06,18:01～19:00,0.0415,0.0362,0.0385,
江戸川 (Edogawa),2022-12-06,17:01～18:00,0.0419,0.0362,0.0388,
江戸川 (Edogawa),2022-12-06,16:01～17:00,0.0428,0.0362,0.0390,
江戸川 (Edogawa),2022-12-06,15:01～16:00,0.0409,0.0362,0.0388,
江戸川 (Edogawa),2022-12-06,14:01～15:00,0.0424,0.0368,0.0391,
江戸川 (Edogawa),2022-12-06,13:01～14:00,0.0433,0.0369,0.0396,
江戸川 (Edogawa),2022-12-06,12:01～13:00,0.0441,0.0365,0.0404,
江戸川 (Edogawa),2022-12-06,11:01～12:00,0.0434,0.0376,0.0405,
江戸川 (Edogawa),2022-12-06,10:01～11:00,0.0432,0.0366,0.0397,
江戸川 (Edogawa),2022-12-06,09:01～10:00,0.0418,0.0372,0.0399,
江戸川 (Edogawa),2022-12-06,08:01～09:00,0.0436,0.0375,0.0409,
江戸川 (Edogawa),2022-12-06,07:01～08:00,0.0481,0.0408,0.0443,
江戸川 (Edogawa),2022-12-06,06:01～07:00,0.0517,0.0435,0.0479,
江戸川 (Edogawa),2022-12-06,05:01～06:00,0.0503,0.0455,0.0478,
江戸川 (Edogawa),2022-12-06,04:01～05:00,0.0527,0.0459,0.0487,
江戸川 (Edogawa),2022-12-06,03:01～04:00,0.0563,0.0468,0.0512,
江戸川 (Edogawa),2022-12-06,02:01～03:00,0.0617,0.0534,0.0576,
江戸川 (Edogawa),2022-12-06,01:01～02:00,0.0594,0.0506,0.0558,
江戸川 (Edogawa),2022-12-06,00:01～01:00,0.0623,0.0534,0.0574,
江戸川 (Edogawa),2022-12-05,23:01～24:00,0.0634,0.0543,0.0587,
江戸川 (Edogawa),2022-12-05,22:01～23:00,0.0641,0.0574,0.0608,
江戸川 (Edogawa),2022-12-05,21:01～22:00,0.0642,0.0551,0.0587,
江戸川 (Edogawa),2022-12-05,20:01～21:00,0.0608,0.0497,0.0551,
江戸川 (Edogawa),2022-12-05,19:01～20:00,0.0545,0.0396,0.0469,
江戸川 (Edogawa),2022-12-05,18:01～19:00,0.0459,0.0396,0.0423,
江戸川 (Edogawa),2022-12-05,17:01～18:00,0.0501,0.0415,0.0467,
江戸川 (Edogawa),2022-12-05,16:01～17:00,0.0535,0.0451,0.0484,
江戸川 (Edogawa),2022-12-05,15:01～16:00,0.0485,0.0403,0.0452,
江戸川 (Edogawa),2022-12-05,14:01～15:00,0.0489,0.0366,0.0428,
江戸川 (Edogawa),2022-12-05,13:01～14:00,0.0446,0.0370,0.0402,
江戸川 (Edogawa),2022-12-05,12:01～13:00,0.0422,0.0369,0.0399,
江戸川 (Edogawa),2022-12-05,11:01～12:00,0.0427,0.0372,0.0399,
江戸川 (Edogawa),2022-12-05,10:01～11:00,0.0432,0.0376,0.0405,
江戸川 (Edogawa),2022-12-05,09:01～10:00,0.0451,0.0389,0.0412,
江戸川 (Edogawa),2022-12-05,08:01～09:00,0.0457,0.0388,0.0417,
江戸川 (Edogawa),2022-12-05,07:01～08:00,0.0469,0.0399,0.0427,
江戸川 (Edogawa),2022-12-05,06:01～07:00,0.0451,0.0393,0.0425,
江戸川 (Edogawa),2022-12-05,05:01～06:00,0.0437,0.0381,0.0408,
江戸川 (Edogawa),2022-12-05,04:01～05:00,0.0440,0.0365,0.0406,
江戸川 (Edogawa),2022-12-05,03:01～04:00,0.0439,0.0380,0.0406,
江戸川 (Edogawa),2022-12-05,02:01～03:00,0.0440,0.0370,0.0401,
江戸川 (Edogawa),2022-12-05,01:01～02:00,0.0425,0.0370,0.0399,
江戸川 (Edogawa),2022-12-05,00:01～01:00,0.0440,0.0370,0.0401,
